ONEWEB-0027 (45432 NORAD) Tracking and Keplerian Element Data

This shows tracking and keplerian element data for the satellite.

Feedback or suggestion? Click here.




ElementValue
Catalog45432
NameONEWEB-0027
Epoch Orbit1635
Epoch Day190.25001157
Epoch Year2020
RAAN103.4935
Inclination87.5648
Eccentricity0.0024002
Argument of Perigee265.074
Mean Anonmoly83.9155
Mean Motion14.89861814
Decay Rate0.00012537
L11 45432U 20020J 20190.25001157 .00012537 00000-0 12946-2 0 9997
L22 45432 87.5648 103.4935 0024002 265.0740 83.9155 14.89861814 16351

Live tracking and technical data element details for ONEWEB-0027 (NORAD 45432). ONEWEB-0027 can be tracked NOW for your location showing map with azimuth and elevation plus other details from your city location.

Track the satellite on the map from your city or location and see movement details for azimuth, elevation, latitude, longitude, range, height, and movement on the map or in text.







IsCatalogInMostPopularTable: catalog: 45432, numindb: 31
Update: records affected: 1



GetName: 45432 ONEWEB-0027

Hit Count: updated at: Fri, 10 Jul 2020 03:12:35 GMT